Location: Dodge City Community College Clyde Tombaugh Astronomy Center
(37.7756°N, 100.0412°W)
Time: 04:00:03
(UTC+00:00)

Hubble Space Telescope - Visible Passes

Search period start: 30 November 2022 00:00
Search period end: 10 December 2022 00:00
Orbit: 530 x 534 km, 28.5° (Epoch: 29 November)

Date Brightness Start Highest point End Pass type
(mag) Time Alt. Az. Time Alt. Az. Time Alt. Az.
07 Dec 3.7 11:38:04 10° SSE 11:38:19 10° SSE 11:38:34 10° SSE visible
08 Dec 3.4 11:24:40 11° S 11:25:33 12° SSE 11:27:07 10° SE visible
08 Dec 3.0 13:02:51 10° SW 13:05:56 21° S 13:09:02 10° SE visible
09 Dec 3.4 11:13:04 14° SSE 11:13:04 14° SSE 11:14:52 10° SE visible
09 Dec 2.8 12:50:03 10° SW 12:53:12 21° S 12:56:21 10° SE visible
